User: anonymous   Login
Location: Unspecified
(0.0000°N, 0.0000°E)
Time: 19:17:27
(UTC+00:00)
Language:

USA 72 - Orbit

View from above orbital plane
View from above orbital plane
View from above satellite
View from above satellite

Ground track
Ground track

The orbit data is extracted from the following two-line orbital elements,

1 21775U 91076A   19018.74029118 0.00000000  00000-0  00000-0 0    09
2 21775  63.3397 245.0597 3355147 269.8767  52.3901  5.53395312    06
Epoch (UTC): 18 January 2019 17:46:01
Eccentricity: 0.3355147
inclination: 63.3397°
perigee height: 2593 km
apogee height: 11653 km
right ascension of ascending node: 245.0597°
argument of perigee: 269.8767°
revolutions per day: 5.53395312
mean anomaly at epoch: 52.3901°
orbit number at epoch: 0

The dashed part of the orbit path shows where the satellite is in the earth's shadow,  

DLR